Location: Henham
(51.9333°N, 0.2500°E)
Time: 13:15:49
(UTC+00:00)

STARLINK-74 - Pass Details

Date: 23 October 2019
Orbit: 548 x 552 km, 53.0° (Epoch: 13 November)

Event Time Altitude Azimuth Distance (km) Brightness Sun altitude
Rises 19:24:57 0° 287° (WNW) 2,721 8.6 -24.6°
Reaches altitude 10° 19:27:11 10° 284° (WNW) 1,826 7.3 -24.9°
Enters shadow 19:30:39 55° 251° (WSW) 665 4.2 -25.5°
